Location: Demmingen
(48.6757°N, 10.4375°E)
Time: 21:19:52
(UTC+00:00)

Cosmos 1850 Rocket - Pass Details

Date: 23 May 2024
Orbit: 753 x 782 km, 74.0° (Epoch: 14 June)

Event Time Altitude Azimuth Distance (km) Brightness Sun altitude
Exits shadow 01:46:17 18° 219° (SW) 1,807 5.3 -12.9°
Maximum altitude 01:50:07 62° 296° (WNW) 873 4.2 -12.5°
Drops below altitude 10° 01:55:21 10° 18° (NNE) 2,321 7.7 -12.0°
Sets 01:57:46 0° 22° (NNE) 3,247 8.9 -11.8°
